Location: Sabalos
(43.2860°N, 0.1414°E)
Time: 08:51:58
(UTC+00:00)

NOSS 3-4 (A) - Pass Details

Date: 05 July 2020
Orbit: 892 x 1320 km, 63.4° (Epoch: 12 July)

Event Time Altitude Azimuth Distance (km) Brightness Sun altitude
Rises 22:05:12 0° 325° (NW) 3,799 8.3 -18.6°
Reaches altitude 10° 22:07:51 10° 331° (NNW) 2,903 7.2 -18.8°
Maximum altitude 22:14:33 49° 46° (NE) 1,461 4.5 -19.4°
Enters shadow 22:19:47 20° 112° (ESE) 2,507 5.2 -19.8°
